7 * 24
多渠道服务支持
STARLINK-37735(NORAD编号69243)是SpaceX星链(Starlink)低轨互联网星座中的一颗通信卫星,隶属SpaceX全球卫星互联网项目。 作为星链批量部署的卫星之一,它运行于近地轨道,旨在为全球偏远地区、海洋航空等场景提供高速宽带互联网接入服务,依托低轨轨道缩短信号传输延迟,补充地面网络覆盖盲区。 星链星座通过持续发射同类卫星组网,STARLINK-37735是SpaceX扩张星座规模、完善全球覆盖能力的组成部分,助力实现无缝全球互联的通信目标。
美国
(US)
| 数据来源 | 国际轨道数据 |
| 星历时间: | 2026-07-27T21:35:55+0800 10小时前 查看轨道信息 |
| 半长轴: | 6840.885km |
| 偏心率: | 0.000089 |
| 轨道倾角: | 53.162° |
| 近地点辐角 | 68.393° |
| 升交点赤经 | 50.532° |
| 平近点角 | 291.717° |
| 近地点: | 462.139km |
| 远地点: | 463.357km |
| 周期: | 93.849分钟 |
| 每日圈数: | 15.343851 |